Location: Christianberg
(48.9086°N, 14.0209°E)
Time: 22:52:12
(UTC+00:00)

FALCON 9 DEB - Pass Details

Date: 20 June 2021
Orbit: 357 x 373 km, 53.0° (Epoch: 04 August)

Event Time Altitude Azimuth Distance (km) Brightness Sun altitude
Rises 00:49:57 0° 293° (WNW) 2,260 6.8 -14.0°
Reaches altitude 10° 00:52:02 10° 297° (WNW) 1,402 5.7 -13.8°
Maximum altitude 00:55:08 63° 20° (NNE) 428 3.3 -13.6°
Drops below altitude 10° 00:58:13 10° 102° (ESE) 1,387 5.9 -13.4°
Sets 01:00:16 0° 106° (ESE) 2,232 6.9 -13.3°
